Preview of NWS' New Version of Forecast
This preview is not operational and should not be used for support decisions.

Regional Weather Roundup (RWR)

Issued by National Weather Service (NWS)

                            
000
ASUS43 KLSX 212107
RWRMO 

WEATHER SUMMARY FOR MISSOURI
NATIONAL WEATHER SERVICE SPRINGFIELD MO
400 PM CDT SUN JUL 21 2019

NOTE: "FAIR" INDICATES FEW OR NO CLOUDS BELOW 12,000 FEET WITH NO
       SIGNIFICANT WEATHER AND/OR OBSTRUCTIONS TO VISIBILITY.
       CURRENT SKY AND/OR WEATHER CONDITIONS ARE NOT AVAILABLE FOR
       CHILLICOTHE AND FARMINGTON.

MOZ001>031-035>038-043-044-053-054-212200-
...NORTHERN AND WESTERN MISSOURI...
  
CITY           SKY/WX    TMP DP  RH WIND       PRES   REMARKS
KANSAS CTY INT PTSUNNY   82  71  69 NE12      29.98R                  
KANSAS C DTWN  MOSUNNY   83  69  62 NE9       29.96R                  
LEE'S SUMMIT   PTSUNNY   82  70  66 E9        29.97S                  
ST JOSEPH      MOSUNNY   83  70  64 MISG      30.00R                  
CHILLICOTHE      N/A     84  72  67 CALM      29.98R                  
KIRKSVILLE     MOSUNNY   86  69  56 VRB3      29.96F HX  90           
     
$$
MOZ066>068-077>081-088>096-101>105-212200-
...SOUTHWEST MISSOURI...
  
CITY           SKY/WX    TMP DP  RH WIND       PRES   REMARKS
SPRINGFIELD    MOSUNNY   95  70  44 VRB5      29.94F HX 101           
JOPLIN         PTSUNNY   92  74  55 S5        29.93S HX 101           
BRANSON        PTSUNNY   93  72  49 SE7       29.97F HX 100           
               
$$
MOZ032>034-039>042-045>050-055>058-069>072-212200-
...CENTRAL MISSOURI...  
  
CITY           SKY/WX    TMP DP  RH WIND       PRES   REMARKS
COLUMBIA       SUNNY     88  70  55 CALM      29.94F HX  93           
ROLLA          MOSUNNY   88  70  55 S8        29.95F HX  93           
SEDALIA        MOSUNNY   83  73  72 N7        29.97S                  
WHITEMAN AFB   MOSUNNY   84  74  72 NE10      29.91F HX  92           
WARRENSBURG    SUNNY     82  72  69 NE7       29.94F                  
OSAGE BEACH    SUNNY     91  70  49 VRB5      29.94F HX  96           
               
$$
MOZ051-052-059>065-212200-
...EAST CENTRAL MISSOURI...
  
CITY           SKY/WX    TMP DP  RH WIND       PRES   REMARKS
ST LOUIS INTL  PTSUNNY   90  72  55 NW8       29.91F HX  97           
SPIRIT OF STL  MOSUNNY   90  73  57 NW6       29.90F HX  98           
ST CHARLES       N/A    N/A N/A N/A MISG      29.90F                  
                   
$$
MOZ072>076-082>087-097>100-106>115-212200-
...SOUTH CENTRAL AND SOUTHEAST MISSOURI...
  
CITY           SKY/WX    TMP DP  RH WIND       PRES   REMARKS
CAPE GIRARDEAU FAIR      91  78  65 S6        29.89F HX 106           
FARMINGTON     SUNNY     90  73  57 W5        29.93F HX  98           
POPLAR BLUFF   FAIR      91  78  65 SW10      29.90F HX 106           
WEST PLAINS    MOSUNNY   90  72  55 SW5       29.97S HX  97           
                                       
$$